Location: Bonaustraße
(48.4603°N, 11.9280°E)
Time: 08:31:22
(UTC+02:00)

STRAND 1 - Pass Details

Date: 07 August 2021
Orbit: 768 x 781 km, 98.4° (Epoch: 27 September)

Event Time Altitude Azimuth Distance (km) Brightness Sun altitude
Rises 21:24:28 0° 8° (N) 3,253 ? -7.2°
Reaches altitude 10° 21:26:53 10° 1° (N) 2,321 ? -7.5°
Maximum altitude 21:31:37 40° 294° (WNW) 1,131 ? -8.2°
Drops below altitude 10° 21:36:19 10° 226° (SW) 2,305 ? -8.8°
Sets 21:38:44 0° 219° (SW) 3,228 ? -9.1°
